Location: Santaluz Observatory
(32.9930°N, 117.1510°W)
Time: 06:42:56
(UTC-08:00)

Hubble Space Telescope - Visible Passes

Search period start: 01 February 2015 00:00
Search period end: 11 February 2015 00:00
Orbit: 544 x 548 km, 28.5° (Epoch: 31 January)

Date Brightness Start Highest point End Pass type
(mag) Time Alt. Az. Time Alt. Az. Time Alt. Az.
01 Feb 1.6 17:59:53 10° WSW 18:03:52 43° S 18:07:42 11° ESE visible
01 Feb 2.8 19:41:04 10° WSW 19:43:13 25° WSW 19:43:13 25° WSW visible
02 Feb 1.6 17:51:50 10° WSW 17:55:50 45° S 17:59:50 10° ESE visible
02 Feb 2.5 19:33:07 10° WSW 19:35:47 29° SW 19:35:47 29° SW visible
03 Feb 1.7 17:43:47 10° WSW 17:47:48 45° S 17:51:48 10° ESE visible
03 Feb 2.3 19:25:10 10° WSW 19:28:24 29° SSW 19:28:24 29° SSW visible
04 Feb 2.4 19:17:16 10° WSW 19:20:47 26° SSW 19:21:04 25° S visible
05 Feb 2.7 19:09:26 10° WSW 19:12:40 21° SSW 19:13:49 19° S visible
06 Feb 3.1 19:01:43 10° WSW 19:04:33 18° SSW 19:06:38 13° SSE visible
07 Feb 3.4 18:54:11 10° SW 18:56:25 14° SSW 18:58:35 10° S visible
08 Feb 3.7 18:47:15 10° SW 18:48:16 11° SSW 18:49:10 10° SSW visible
